Mount Shasta, CA

4:50 AM PST on February 23, 2018 (GMT -0800)
Mount Shasta

Weather History for KMHS - February, 2014

Change the Weather History Date:

Tuesday, February 4, 2014

  Actual Average Record
Temperature  
Mean Temperature 30 °F 37 °F  
Max Temperature 43 °F 47 °F 67 °F (1984)
Min Temperature 16 °F 27 °F 7 °F (1989)
Degree Days  
Heating Degree Days 35 28  
Month to date heating degree days 129 112  
Since 1 July heating degree days 3071 3338  
Cooling Degree Days 0 0  
Month to date cooling degree days 0 0  
Year to date cooling degree days 0 0  
Moisture  
Dew Point 14 °F    
Average Humidity 57    
Maximum Humidity 80    
Minimum Humidity 33    
Precipitation  
Precipitation 0.00 in 0.24 in 2.40 in (1937)
Month to date precipitation 0.00 0.97  
Year to date precipitation 0.21 8.03  
Sea Level Pressure  
Sea Level Pressure 30.16 in    
Wind  
Wind Speed 3 mph (NNE)    
Max Wind Speed 12 mph    
Max Gust Speed 19 mph    
Visibility 9 miles    
Events      
T = Trace of Precipitation, MM = Missing Value Source: NWS Daily Summary

Daily Weather History Graph

Daily Weather History Graph

Search for Another Location

Airport or City:

Trip Planner

Search our weather history database for the weather conditions in past years. The results will help you decide how hot, cold, wet, or windy it might be!

Date:

Astronomy

Feb. 04, 2014 Rise Set
Actual Time 7:17 AM PST 5:29 PM PST
Civil Twilight 6:48 AM PST 5:58 PM PST
Nautical Twilight 6:15 AM PST 6:31 PM PST
Astronomical Twilight 5:43 AM PST 7:03 PM PST
Moon 9:54 AM PST (2/4) 11:33 PM PST (2/4)
Length of Visible Light 11h 10m
Length of Day
10h 12m
Waxing Crescent, 30% of the Moon is Illuminated
Feb 4
Waxing Crescent
Feb 6
First Quarter
Feb 14
Full
Feb 22
Last Quarter
Mar 1
New

Hourly Weather History & Observations

Time (PST) Temp. Windchill Dew Point Humidity Pressure Visibility Wind Dir Wind Speed Gust Speed Precip Events Conditions
12:56 AM 21.0 °F - 12.0 °F 68% 30.13 in 10.0 mi Calm Calm - N/A   Clear
1:56 AM 19.0 °F 12.3 °F 10.9 °F 71% 30.14 in 10.0 mi ENE 4.6 mph - N/A   Clear
2:56 AM 19.0 °F 13.9 °F 10.9 °F 71% 30.15 in 10.0 mi NE 3.5 mph - N/A   Clear
3:56 AM 19.0 °F 13.9 °F 12.0 °F 74% 30.15 in 10.0 mi NE 3.5 mph - N/A   Clear
4:56 AM 19.9 °F 14.9 °F 12.9 °F 74% 30.16 in 10.0 mi NNE 3.5 mph - N/A   Clear
5:56 AM 18.0 °F - 12.0 °F 78% 30.17 in 10.0 mi Calm Calm - N/A   Clear
6:56 AM 17.1 °F 10.0 °F 10.0 °F 74% 30.19 in 9.0 mi NE 4.6 mph - N/A   Clear
7:56 AM 18.0 °F - 10.9 °F 74% 30.20 in 9.0 mi Calm Calm - N/A   Clear
8:56 AM 24.1 °F - 14.0 °F 65% 30.21 in 10.0 mi Calm Calm - N/A   Clear
9:56 AM 32.0 °F - 19.9 °F 61% 30.20 in 10.0 mi Calm Calm - N/A   Clear
10:56 AM 36.0 °F 32.1 °F 18.0 °F 48% 30.19 in 10.0 mi West 4.6 mph - N/A   Clear
11:56 AM 39.0 °F 36.8 °F 17.1 °F 41% 30.17 in 10.0 mi WNW 3.5 mph - N/A   Clear
12:56 PM 41.0 °F 38.0 °F 16.0 °F 36% 30.14 in 10.0 mi Variable 4.6 mph - N/A   Clear
1:56 PM 42.1 °F 37.1 °F 16.0 °F 35% 30.12 in 10.0 mi West 8.1 mph - N/A   Clear
2:56 PM 41.0 °F 35.2 °F 15.1 °F 35% 30.11 in 10.0 mi WNW 9.2 mph - N/A   Clear
3:56 PM 39.9 °F 36.7 °F 16.0 °F 38% 30.11 in 10.0 mi Variable 4.6 mph - N/A   Clear
4:56 PM 37.0 °F 33.3 °F 16.0 °F 42% 30.12 in 10.0 mi Variable 4.6 mph - N/A   Clear
5:56 PM 35.1 °F - 16.0 °F 46% 30.15 in 10.0 mi Calm Calm - N/A   Clear
6:56 PM 30.9 °F 27.5 °F 15.1 °F 52% 30.18 in 9.0 mi ENE 3.5 mph - N/A   Clear
7:56 PM 28.0 °F 24.2 °F 12.9 °F 53% 30.19 in 10.0 mi NE 3.5 mph - N/A   Clear
8:56 PM 27.0 °F - 12.9 °F 56% 30.20 in 5.0 mi Calm Calm - N/A   Haze
9:56 PM 26.1 °F - 10.9 °F 53% 30.19 in 4.0 mi Calm Calm - N/A   Haze
10:56 PM 25.0 °F 20.7 °F 10.0 °F 53% 30.19 in 5.0 mi NE 3.5 mph - N/A   Haze
11:56 PM 21.9 °F 17.2 °F 10.0 °F 60% 30.20 in 9.0 mi NE 3.5 mph - N/A   Partly Cloudy